TimeMDT,TemperatureF,Dew PointF,Humidity,Sea Level PressureIn,VisibilityMPH,Wind Direction,Wind SpeedMPH,Gust SpeedMPH,PrecipitationIn,Events,Conditions,WindDirDegrees,DateUTC
12:53 AM,73.0,62.1,68,29.76,10.0,North,4.6,-,N/A,,Clear,360,2013-07-07 06:53:00
1:53 AM,71.1,62.1,73,29.76,10.0,NNW,6.9,-,N/A,,Clear,340,2013-07-07 07:53:00
2:53 AM,70.0,62.1,76,29.77,9.0,North,8.1,-,N/A,,Clear,10,2013-07-07 08:53:00
3:53 AM,68.0,62.1,81,29.76,9.0,NNE,5.8,-,N/A,,Clear,20,2013-07-07 09:53:00
4:53 AM,66.0,61.0,84,29.79,9.0,Calm,Calm,-,N/A,,Clear,0,2013-07-07 10:53:00
5:53 AM,66.9,62.1,84,29.82,8.0,ENE,5.8,-,N/A,,Clear,60,2013-07-07 11:53:00
6:53 AM,72.0,63.0,73,29.83,9.0,NNE,8.1,-,N/A,,Clear,30,2013-07-07 12:53:00
7:53 AM,73.9,64.0,71,29.84,10.0,NNE,15.0,-,N/A,,Clear,20,2013-07-07 13:53:00
8:53 AM,79.0,63.0,58,29.85,10.0,NE,13.8,-,N/A,,Clear,50,2013-07-07 14:53:00
9:53 AM,84.9,64.0,49,29.84,10.0,ENE,11.5,-,N/A,,Clear,60,2013-07-07 15:53:00
10:53 AM,86.0,63.0,46,29.85,10.0,East,12.7,18.4,N/A,,Clear,100,2013-07-07 16:53:00
11:53 AM,87.1,62.1,43,29.87,10.0,East,8.1,-,N/A,,Clear,80,2013-07-07 17:53:00
12:53 PM,91.0,62.1,38,29.85,10.0,East,5.8,19.6,N/A,,Clear,80,2013-07-07 18:53:00
1:53 PM,93.0,62.1,36,29.84,10.0,East,12.7,-,N/A,,Clear,100,2013-07-07 19:53:00
2:53 PM,93.9,59.0,31,29.82,10.0,ESE,10.4,-,N/A,,Clear,120,2013-07-07 20:53:00
3:53 PM,96.1,57.9,28,29.81,10.0,Variable,3.5,-,N/A,,Clear,0,2013-07-07 21:53:00
4:53 PM,95.0,57.9,29,29.79,10.0,East,6.9,-,N/A,,Clear,100,2013-07-07 22:53:00
5:53 PM,93.9,59.0,31,29.79,10.0,ESE,9.2,-,N/A,,Clear,110,2013-07-07 23:53:00
6:53 PM,89.1,62.1,40,29.79,10.0,ESE,10.4,-,N/A,,Clear,110,2013-07-08 00:53:00
7:53 PM,82.9,59.0,44,29.82,10.0,South,5.8,-,N/A,,Clear,170,2013-07-08 01:53:00
8:50 PM,82.4,59.0,45,30.00,10.0,West,23.0,28.8,N/A,Thunderstorm,Mostly Cloudy,280,2013-07-08 02:50:00
8:53 PM,79.0,61.0,54,29.89,9.0,West,21.9,32.2,N/A,Thunderstorm,Mostly Cloudy,270,2013-07-08 02:53:00
9:08 PM,71.6,66.2,83,30.02,5.0,WNW,15.0,36.8,0.02,Rain-Thunderstorm,Thunderstorms and Rain,290,2013-07-08 03:08:00
9:53 PM,66.0,62.1,87,29.99,10.0,North,17.3,31.1,0.09,Rain-Thunderstorm,Light Thunderstorms and Rain,350,2013-07-08 03:53:00
10:45 PM,66.2,64.4,94,30.01,6.0,East,29.9,34.5,0.08,Rain,Light Rain,80,2013-07-08 04:45:00
10:53 PM,68.0,64.0,87,29.91,8.0,East,24.2,40.3,0.09,Rain,Light Rain,90,2013-07-08 04:53:00
11:02 PM,69.8,62.6,78,30.03,10.0,East,20.7,31.1,0.00,Rain-Thunderstorm,Light Rain,100,2013-07-08 05:02:00
11:17 PM,69.8,62.6,78,30.02,10.0,East,20.7,31.1,0.00,,Partly Cloudy,100,2013-07-08 05:17:00
11:53 PM,70.0,62.1,76,29.92,10.0,East,19.6,26.5,0.00,,Clear,100,2013-07-08 05:53:00